Theta_e
303 304 305 305 305 304 303 304 306 305 303 303 304 305 306 307 310 319 321 320 318 322 324 321 320 323 325 325 327 324 327 325 325 327 326 326 327 329 329 331 329 328 329 329 328 333 335 331 332 335 331 326 326 325
304 305 305 306 305 304 304 305 305 304 303 303 304 305 305 307 309 310 312 317 318 320 324 320 318 319 322 322 322 322 324 328 326 330 331 330 330 328 330 329 328 328 328 332 330 331 329 326 326 325 324 325 324 324
304 304 305 305 305 305 304 304 304 304 304 304 304 305 305 306 309 310 318 319 318 322 322 322 320 318 319 319 320 322 326 324 327 324 326 324 326 323 325 325 325 327 324 326 325 327 325 324 324 324 324 324 323 323
303 304 304 304 303 303 303 303 304 304 304 304 304 306 305 306 309 310 313 319 319 322 322 322 321 320 320 319 319 321 322 323 321 321 323 323 324 324 324 324 324 324 323 326 326 326 324 324 323 323 322 321 322 322
303 303 303 303 303 303 303 304 304 304 304 304 304 306 305 306 309 311 317 319 319 320 322 324 321 319 319 318 319 320 320 321 322 324 324 324 324 323 324 322 322 322 323 322 326 324 324 323 322 321 321 321 321 321
303 303 303 303 303 304 304 304 304 304 304 304 306 306 306 308 311 318 320 319 318 313 320 325 322 320 320 320 320 321 322 322 322 322 323 322 321 322 323 323 323 322 322 322 322 321 321 321 320 320 319 319 319 319
303 303 303 303 304 304 304 305 306 305 304 305 307 308 309 310 311 314 319 317 313 314 321 323 323 321 320 321 322 322 322 321 321 321 321 321 320 320 322 322 322 322 322 322 321 321 320 320 319 319 319 319 319 320
303 303 303 303 304 304 305 310 310 309 305 308 309 311 311 310 313 317 316 313 313 316 319 323 324 321 320 321 321 321 322 322 321 320 321 321 321 321 321 321 322 323 323 321 321 320 319 319 318 319 319 318 317 317
303 303 303 304 304 305 306 310 310 309 308 311 311 311 313 314 317 318 317 314 312 318 320 322 325 325 319 320 322 322 321 322 322 323 322 322 322 322 323 323 321 318 318 318 319 319 318 318 318 318 318 318 318 317
303 303 303 304 305 305 305 310 309 309 311 311 313 317 318 317 315 314 317 317 317 319 318 319 322 323 320 320 323 323 321 323 322 322 322 322 321 320 322 320 318 318 317 317 317 317 317 317 319 319 317 316 316 316
303 303 304 304 305 304 305 311 310 311 314 315 315 316 316 315 316 318 318 319 319 319 319 318 321 323 320 323 323 321 323 323 322 321 322 321 322 322 319 318 318 317 317 316 316 315 316 318 317 315 315 314 314 315
303 303 304 305 305 305 307 308 311 311 311 312 312 312 315 317 318 318 319 319 320 322 320 321 322 323 322 320 321 322 322 323 323 322 322 321 322 321 319 318 318 319 318 317 317 316 317 317 316 315 315 316 315 316
304 304 305 305 305 305 307 308 309 312 310 313 314 317 317 317 315 318 318 321 323 320 321 321 323 320 322 320 322 323 323 323 320 323 322 324 324 320 319 320 320 320 318 317 316 316 318 318 317 315 315 315 316 317
303 303 304 304 305 306 306 308 309 311 310 315 315 312 317 317 318 318 319 321 321 322 321 322 322 323 321 322 322 322 323 322 323 324 322 322 322 322 323 322 321 319 318 317 317 318 318 318 316 315 316 316 317 317
303 304 305 305 306 306 308 310 310 310 310 314 315 315 317 316 315 316 319 320 319 321 321 322 322 321 322 322 323 322 323 323 323 323 320 317 320 320 319 320 320 319 317 317 317 318 317 316 316 316 317 316 317 316
305 305 307 308 307 306 307 310 311 311 311 314 315 317 317 317 318 319 320 320 321 321 322 321 322 324 323 323 323 323 323 323 323 321 317 315 316 315 317 320 319 317 317 317 318 316 315 316 316 316 316 317 316 316
304 304 307 307 306 305 307 309 311 312 314 315 316 316 316 317 318 317 318 321 321 320 324 321 322 323 323 323 323 323 322 321 316 315 316 316 316 319 319 317 316 317 318 318 317 315 316 315 315 316 316 316 315 315
304 307 306 305 305 306 310 310 312 314 315 315 315 316 316 317 318 318 318 319 320 321 321 322 321 322 322 321 322 322 319 319 319 319 319 319 318 318 317 319 319 316 315 316 316 316 317 315 315 317 317 316 314 314
303 305 305 305 305 306 310 312 312 314 315 315 316 317 318 317 316 316 317 318 319 321 320 317 319 322 322 321 320 319 319 319 319 319 318 317 318 318 315 317 317 315 315 316 314 314 314 314 316 316 317 316 315 315
305 306 307 307 306 308 310 313 314 315 316 317 317 317 318 318 319 320 320 321 320 317 319 320 321 320 320 318 320 319 318 317 318 317 317 317 316 316 316 315 316 315 315 315 315 314 313 314 315 315 315 316 315 316
307 307 307 306 306 307 309 312 313 315 315 316 316 318 319 319 319 321 319 319 319 320 321 320 321 320 320 319 319 318 318 318 318 318 317 315 316 316 316 315 315 314 315 315 314 314 315 315 315 316 316 315 315 316
307 307 307 308 308 310 311 311 313 315 315 316 316 318 319 321 321 321 322 318 320 320 318 319 320 318 319 319 318 317 316 316 315 316 315 316 315 315 316 316 315 316 315 313 314 315 314 314 314 314 315 315 315 313
305 306 307 307 309 310 310 313 314 316 317 320 321 322 323 322 321 320 322 321 319 319 317 318 319 318 317 314 316 316 316 315 316 316 316 316 316 316 316 315 316 315 315 315 314 314 313 314 313 314 313 313 314 315
306 307 310 310 310 311 314 316 317 318 319 320 321 323 322 323 323 324 324 322 320 320 320 317 314 316 316 316 316 317 317 314 312 312 313 314 315 316 316 315 315 314 314 315 314 314 315 314 313 313 312 311 310 311
308 308 309 310 312 315 317 317 319 320 321 322 321 324 325 324 324 324 323 322 321 320 318 316 317 317 317 316 316 315 315 316 315 314 314 314 314 315 314 315 314 314 314 313 313 312 313 314 313 313 313 310 310 311
306 310 311 314 315 317 319 319 320 322 322 320 322 322 322 323 323 323 322 319 321 319 316 315 315 316 316 316 316 316 316 317 316 315 315 315 314 314 314 314 313 313 312 311 312 313 313 313 312 312 311 310 310 310
310 313 314 315 315 316 317 317 318 321 322 322 323 323 321 325 324 324 321 318 319 317 316 315 315 315 315 315 315 314 313 313 314 314 316 316 315 314 314 313 311 310 309 309 311 311 311 311 311 310 310 310 310 310
311 313 315 316 316 316 317 318 319 320 321 318 319 323 322 323 323 322 321 319 317 317 316 315 315 316 316 315 315 315 315 314 315 315 317 317 316 315 314 314 311 310 310 309 309 311 310 310 310 311 311 311 311 311
312 314 315 316 317 317 318 318 317 318 319 319 322 323 323 322 320 320 320 321 317 316 315 315 315 315 316 314 314 314 315 315 315 317 317 316 315 315 315 314 312 313 312 312 312 312 311 311 310 310 310 311 311 311
313 314 315 315 317 318 317 317 317 318 319 319 320 322 323 321 319 318 319 321 318 316 315 315 315 315 315 316 315 316 316 316 316 317 315 315 314 313 313 313 312 313 313 313 313 312 313 312 312 312 312 312 312 312
314 315 315 315 316 316 316 317 318 318 318 318 318 318 318 319 319 319 319 321 321 318 316 316 316 316 316 316 316 316 317 316 317 317 317 314 315 314 314 313 312 312 312 312 312 313 313 312 313 313 313 312 313 313
315 315 316 318 318 317 317 317 317 317 317 317 318 318 318 318 323 321 320 322 322 319 317 316 316 316 316 316 316 315 315 316 316 317 316 315 315 315 315 314 314 312 312 312 312 312 313 313 313 313 312 313 313 312
316 317 316 317 317 317 317 317 318 318 319 319 319 319 321 320 320 323 322 322 321 321 319 317 316 316 316 316 316 315 315 315 315 314 313 313 313 311 312 314 314 314 314 313 312 312 312 313 313 313 313 312 312 313
Wind_Speed
18 18 18 19 18 17 17 17 18 18 18 18 17 15 13 10 9 7 7 14 14 6 7 8 8 10 12 11 4 8 5 1 3 1 2 3 2 3 4 5 3 3 2 2 3 4 2 13 9 6 6 20 21 23
17 17 17 17 17 16 16 16 17 17 17 17 16 14 12 9 7 7 7 5 6 7 6 6 4 4 0 4 9 9 3 8 7 3 4 4 4 5 6 3 7 4 3 0 4 2 6 16 14 13 14 14 16 18
17 17 17 17 17 17 17 17 17 17 16 16 16 13 10 8 7 6 7 18 17 6 15 11 7 1 3 2 2 4 7 7 6 5 4 2 2 3 3 4 6 3 17 3 6 7 10 19 18 15 12 11 12 13
16 15 16 16 16 17 17 18 18 18 17 15 14 12 9 7 5 6 6 10 11 6 5 5 4 2 4 2 3 0 4 3 3 3 4 2 2 5 2 2 2 3 7 5 2 14 10 18 16 14 14 14 14 14
14 14 15 15 16 16 16 17 19 20 19 16 13 11 7 6 4 4 3 9 6 4 5 8 2 3 1 5 1 0 1 1 5 4 3 2 4 3 4 4 3 7 3 4 2 11 8 13 18 17 17 16 15 17
14 14 15 14 15 15 17 19 20 19 17 14 10 8 6 4 2 2 3 3 6 7 3 3 2 6 3 4 4 3 3 2 3 4 5 6 7 4 1 2 5 13 16 15 7 11 10 11 13 15 20 21 20 21
14 14 14 14 15 16 18 19 18 17 15 11 7 5 4 3 3 2 1 4 6 5 2 5 3 7 7 5 5 7 7 5 4 6 2 5 11 3 2 3 6 10 10 12 10 12 12 13 16 18 16 16 18 20
14 14 14 14 14 17 20 20 19 15 12 8 6 4 3 2 2 1 2 3 6 2 3 3 2 6 11 7 5 11 11 13 9 6 2 5 11 5 3 5 10 6 5 7 9 9 13 18 21 20 22 24 26 28
13 13 13 13 14 17 19 21 19 12 9 8 5 2 1 2 2 4 5 6 5 3 4 4 0 1 11 10 4 3 4 2 1 2 7 5 4 3 2 13 10 8 5 5 9 11 17 19 19 17 19 21 26 34
12 13 12 12 14 17 17 18 16 9 6 6 3 3 2 2 6 4 2 1 2 3 4 5 6 2 11 6 6 4 3 2 2 5 11 4 4 13 13 9 8 3 2 4 9 12 10 14 15 18 23 28 29 34
11 10 10 11 14 17 14 14 13 7 3 7 5 2 6 6 2 2 3 4 5 3 6 7 8 3 5 3 2 2 1 2 2 4 4 3 1 8 15 12 6 1 2 8 13 14 12 11 17 24 30 35 33 33
9 8 8 11 15 15 11 12 12 10 7 6 8 8 3 3 3 3 3 4 4 3 8 4 8 3 3 3 1 2 1 1 4 5 1 2 2 16 13 8 4 3 7 12 14 12 13 17 19 23 29 32 36 37
9 10 12 13 14 14 10 11 12 10 8 3 4 3 3 3 2 4 4 3 3 5 5 4 2 3 3 2 1 2 1 4 4 3 2 1 12 12 8 5 2 7 10 11 13 15 15 17 21 24 28 35 38 35
10 11 12 14 16 15 10 9 8 9 5 3 3 4 3 4 4 4 4 3 6 5 8 5 4 3 3 2 2 3 3 2 2 3 1 7 7 6 4 2 5 9 9 11 11 16 17 19 23 26 27 30 35 36
10 13 16 14 12 11 8 7 7 4 2 4 4 3 5 12 15 17 11 1 3 1 10 6 5 4 1 2 3 2 3 3 3 1 2 6 6 6 14 17 11 12 10 11 12 15 20 22 21 25 26 30 31 31
12 12 8 9 12 15 10 8 7 5 3 4 6 6 14 12 10 11 15 13 11 3 7 7 3 2 5 3 4 5 3 2 3 4 7 11 15 8 5 13 13 11 10 11 12 18 18 17 18 23 28 28 27 30
11 6 9 13 15 15 8 7 3 4 5 5 7 14 21 18 15 9 15 7 10 8 2 4 3 5 3 2 2 3 2 2 2 12 4 15 10 6 4 8 9 9 9 8 13 12 13 17 19 19 26 26 24 28
5 11 14 15 16 8 2 3 3 5 6 9 11 19 19 17 19 15 15 14 11 6 6 3 4 2 3 3 1 3 3 6 9 13 10 8 2 5 9 7 7 7 7 8 8 10 12 17 20 19 22 21 22 27
9 15 16 16 11 4 2 3 5 5 8 13 17 20 22 18 14 14 14 13 10 1 6 5 3 3 3 2 4 8 8 5 8 10 7 1 1 3 5 4 5 6 4 5 7 8 10 14 14 18 20 19 19 22
6 6 6 7 4 2 3 4 4 6 6 9 16 18 18 15 9 8 9 6 3 6 7 2 6 6 5 6 4 4 3 2 3 2 2 2 1 2 3 4 2 3 6 4 4 10 11 12 17 19 19 20 17 17
3 4 6 5 1 4 5 4 5 8 10 11 16 16 13 14 13 6 6 10 1 5 6 9 8 5 2 1 4 1 3 1 2 2 3 3 1 6 3 6 2 4 7 10 7 11 11 13 14 11 14 19 16 13
3 6 5 5 3 3 6 8 7 11 8 14 20 14 10 10 12 7 4 5 4 5 7 4 5 3 5 5 3 3 2 3 2 3 2 3 1 5 2 6 7 5 2 7 6 7 5 8 14 11 11 10 13 16
7 4 3 4 3 4 8 6 6 5 4 4 4 3 3 3 3 3 2 7 6 5 11 14 7 8 8 6 6 5 3 5 1 1 1 7 8 7 7 3 1 3 4 6 7 4 6 6 10 9 9 8 10 12
5 4 4 4 7 5 6 6 6 5 5 4 3 3 3 5 6 5 3 11 10 16 14 14 12 11 10 7 6 8 6 4 6 6 8 6 14 13 7 2 2 3 7 3 6 6 8 8 11 9 9 11 14 14
4 5 5 7 6 5 4 4 5 4 6 3 4 4 4 7 2 4 2 7 23 21 14 15 13 13 6 7 9 9 7 8 4 1 6 2 4 5 2 3 4 3 3 7 8 10 5 6 7 11 7 9 15 17
4 6 7 7 8 6 5 2 3 2 1 2 2 6 11 8 4 2 2 5 24 19 14 11 10 13 6 8 5 5 7 8 5 12 9 12 3 7 2 2 2 2 7 5 7 8 6 5 7 4 10 11 11 12
4 7 12 11 9 9 4 7 7 4 2 1 2 4 5 2 5 5 4 5 14 14 9 8 6 10 8 8 6 4 5 6 5 6 6 8 3 2 4 4 6 3 3 2 5 8 8 10 12 9 8 7 8 11
8 7 11 14 15 16 13 11 10 8 3 1 3 4 3 1 3 5 7 5 9 7 6 7 6 6 7 9 6 7 11 7 5 1 3 4 8 4 5 3 8 13 14 11 10 8 9 7 3 6 8 11 6 7
9 9 11 15 14 15 16 14 13 11 13 9 4 2 3 4 4 7 10 8 7 7 7 8 7 7 9 3 5 7 8 9 3 5 5 3 8 8 8 2 2 1 2 3 7 6 8 11 7 5 3 5 7 8
15 17 16 16 14 12 15 15 16 12 15 13 12 12 11 10 5 9 13 7 11 11 10 13 11 10 13 14 8 3 5 5 6 11 3 8 6 7 4 1 2 2 2 9 8 6 7 7 6 3 5 6 8 8
12 13 16 17 16 17 17 18 19 19 15 13 13 14 15 9 9 3 11 12 7 14 13 15 16 15 13 11 16 12 6 5 4 2 3 2 6 5 1 2 4 5 1 2 2 2 4 9 8 3 3 7 7 9
17 18 16 14 16 15 15 16 15 15 16 16 18 21 21 18 11 14 14 12 10 10 14 14 15 13 14 6 5 4 5 7 5 7 5 6 8 4 4 5 1 4 3 5 8 6 7 3 6 7 9 10 10 10
16 17 17 16 14 14 15 14 14 16 17 17 18 19 22 18 10 13 9 11 17 15 12 14 12 10 10 11 9 2 2 8 9 7 3 5 6 5 6 2 7 5 5 6 4 6 7 2 0 4 7 9 9 9
Wind_Direction
332 334 335 336 337 339 339 339 338 340 342 343 346 348 351 351 360 44 60 25 7 309 353 19 15 21 2 19 15 348 307 11 343 262 258 275 285 1 7 14 69 71 53 343 15 8 107 28 25 71 44 32 23 11
332 333 335 335 336 338 338 336 335 337 338 339 341 343 346 343 346 348 324 320 348 269 268 331 294 281 244 16 349 325 346 36 29 354 1 338 355 10 16 341 17 44 61 297 64 117 89 66 91 73 41 27 18 5
329 333 334 335 337 338 336 334 334 334 336 335 335 338 339 335 335 349 14 20 358 313 304 240 214 190 177 314 286 327 29 22 62 18 314 309 5 27 357 331 18 48 40 54 40 26 52 80 56 46 38 14 351 338
332 331 330 334 337 337 336 336 335 334 332 332 332 334 331 324 322 339 354 33 6 320 275 132 154 55 223 196 197 252 45 23 9 332 295 297 350 347 329 321 46 332 19 338 309 21 34 27 32 14 353 343 345 339
327 329 334 336 336 335 335 335 335 333 330 327 330 331 326 317 322 353 102 57 325 24 319 300 255 178 89 172 169 203 200 278 305 247 228 246 269 26 357 14 3 34 16 45 79 43 39 5 347 346 349 343 333 321
331 333 335 334 335 338 338 335 331 327 325 323 325 326 323 316 333 131 103 224 300 341 294 293 74 164 175 131 159 176 187 204 259 314 324 327 333 20 261 233 34 47 49 52 39 20 11 348 332 323 316 312 314 314
334 332 331 336 340 340 337 335 333 330 327 321 320 317 305 299 284 245 224 298 321 345 282 281 198 162 181 173 206 217 202 203 237 294 255 297 296 210 210 234 82 55 51 28 11 352 345 335 341 332 321 317 310 304
331 330 330 335 338 341 341 337 334 329 326 319 317 311 292 268 130 60 313 304 327 288 262 280 221 149 185 200 227 226 213 205 198 213 208 264 282 229 228 233 102 69 40 15 345 335 319 316 312 310 314 315 316 313
328 328 325 329 334 338 340 339 338 334 330 327 324 325 76 183 266 260 275 302 293 217 310 293 342 196 176 226 222 223 211 241 194 180 226 247 213 226 127 113 104 79 61 353 304 304 304 304 304 319 323 317 311 308
324 326 324 330 334 335 335 339 339 346 350 5 21 2 301 300 292 302 308 44 296 220 240 255 286 257 196 205 185 148 166 235 218 234 242 210 227 246 136 122 107 94 16 321 319 320 327 324 335 331 324 322 316 306
320 326 327 333 341 338 336 342 339 337 354 4 336 308 316 320 310 259 251 209 191 231 219 237 249 247 34 53 95 280 76 19 307 253 171 221 226 118 140 146 143 107 354 333 324 321 320 323 324 331 337 337 325 319
318 317 325 332 339 342 339 341 338 323 304 305 300 296 306 262 253 255 226 197 216 255 182 229 200 128 86 73 306 31 56 264 249 302 19 253 294 160 158 146 107 354 323 328 323 319 329 323 322 323 323 323 323 318
308 306 311 316 321 327 324 341 342 334 315 315 303 257 235 237 5 234 211 196 225 204 203 196 101 94 112 183 348 90 257 247 310 269 258 58 113 128 137 139 10 344 335 320 318 313 314 312 307 320 322 326 321 325
302 305 308 314 316 309 293 311 328 334 319 270 257 301 224 209 237 209 247 259 288 323 133 148 94 128 142 58 194 206 227 356 247 264 10 11 48 88 55 11 311 314 314 314 313 316 317 311 319 321 320 321 331 323
308 308 305 313 326 321 282 293 306 314 275 273 282 245 234 252 287 293 303 35 279 198 179 125 49 23 356 260 202 218 238 232 228 236 87 19 45 2 346 315 310 308 317 311 320 314 312 324 325 331 332 335 334 336
313 313 309 315 331 332 305 271 300 296 253 241 241 258 275 282 292 300 304 234 262 105 222 99 148 210 233 216 198 222 237 175 46 21 326 291 288 297 242 282 297 308 307 319 313 319 323 329 327 335 342 345 345 347
310 292 309 309 315 324 287 269 289 236 244 237 245 243 250 272 274 288 316 283 218 262 138 71 248 230 207 231 226 14 60 152 285 294 281 276 293 307 258 269 294 303 317 324 320 339 340 347 344 342 350 355 1 4
296 287 290 301 319 330 323 242 261 252 249 252 268 273 278 270 260 228 240 241 241 223 138 182 293 299 253 270 23 137 180 297 275 266 279 278 162 256 295 307 310 321 328 324 317 338 329 347 356 357 354 360 11 16
257 265 293 307 316 297 264 244 219 267 255 263 266 276 287 287 296 302 298 297 300 7 120 92 41 288 258 317 301 289 293 308 280 276 249 207 152 265 350 3 336 353 344 336 350 346 344 356 4 5 5 5 12 20
290 307 322 313 282 237 276 254 241 260 268 289 292 282 288 294 295 324 317 331 51 73 46 260 209 252 276 270 223 270 264 210 317 325 53 19 341 330 328 320 287 5 344 317 42 0 9 33 25 23 19 12 18 34
9 343 339 354 24 238 268 279 255 257 278 285 282 299 279 273 277 267 301 277 117 175 225 252 241 225 197 147 119 60 27 23 36 325 300 344 29 57 347 1 342 22 4 29 7 17 356 4 6 352 14 28 27 27
271 315 323 295 260 250 259 238 246 286 288 268 290 289 271 277 281 276 208 128 244 264 267 302 331 177 147 111 106 97 83 7 322 212 242 285 256 174 220 288 272 295 324 349 344 7 338 18 353 1 346 8 22 42
276 311 264 251 253 248 264 229 246 248 259 274 296 266 258 278 229 200 210 196 196 86 133 174 186 143 152 155 142 160 98 14 128 77 232 268 272 256 251 280 352 323 278 281 336 352 16 4 11 11 344 359 13 14
252 236 241 234 215 263 255 218 226 259 257 242 274 273 219 240 203 220 228 168 167 150 161 174 157 167 183 199 214 206 215 269 52 152 163 300 287 277 259 259 355 268 269 305 303 330 343 327 0 1 14 11 5 344
219 233 219 232 229 239 258 231 214 248 272 333 288 269 254 199 131 321 221 136 157 160 171 176 192 191 179 155 186 205 249 248 271 178 223 293 127 177 169 167 83 329 316 302 301 306 236 306 334 345 335 35 24 36
237 229 210 223 205 206 214 260 224 291 354 16 326 326 351 319 150 226 4 95 153 156 157 176 203 186 166 193 201 231 236 248 249 284 298 237 275 170 84 136 149 47 350 14 34 27 339 348 330 26 61 41 24 28
243 242 216 233 262 278 240 270 260 228 207 249 5 311 174 287 3 329 31 59 149 151 148 178 213 178 188 189 191 202 185 221 260 234 313 311 293 75 164 92 331 0 31 18 23 9 14 21 38 42 33 27 31 28
243 259 234 230 222 238 249 251 266 279 87 238 318 259 281 19 177 319 338 38 137 140 153 202 239 226 199 197 212 221 222 226 37 342 299 305 245 170 175 81 86 92 89 92 88 60 35 29 39 18 23 359 346 7
235 237 249 260 265 237 235 246 261 269 171 169 205 269 170 222 339 314 262 315 176 157 186 208 232 240 206 239 236 243 214 193 263 234 246 289 208 188 195 146 46 40 194 70 20 16 41 47 58 66 35 348 14 11
244 236 254 258 255 258 261 271 287 298 202 218 253 254 252 260 287 302 254 260 197 182 201 220 217 232 240 231 209 217 268 246 193 266 237 173 118 135 150 210 23 299 242 247 288 308 314 333 325 313 349 17 12 18
235 221 224 242 257 258 255 260 263 267 275 285 275 272 278 263 241 241 269 264 272 217 196 220 226 233 264 263 172 197 219 220 171 235 267 9 154 143 191 319 204 195 325 4 316 304 321 352 355 338 281 338 336 354
234 243 242 241 245 247 240 249 262 265 266 268 272 267 256 237 185 192 205 219 232 239 212 222 234 229 234 197 159 164 106 133 150 149 162 136 124 113 82 133 248 213 301 299 298 275 242 331 1 5 353 352 353 353
231 227 235 252 262 264 266 264 264 266 267 255 258 270 283 250 220 195 222 254 221 230 235 208 223 247 199 169 164 176 161 196 202 196 128 203 265 302 241 215 176 229 353 248 310 331 325 227 344 10 11 2 357 351